Location: Newark
(13.6797°N, 8.5297°E)
Time: 14:58:45
(UTC+00:00)

Courier 1B Rocket - Pass Details

Date: 24 January 2020
Orbit: 920 x 1202 km, 28.2° (Epoch: 22 February)

Event Time Altitude Azimuth Distance (km) Brightness Sun altitude
Rises 15:38:29 0° 303° (WNW) 3,662 8.4 22.3°
Reaches altitude 10° 15:41:25 10° 312° (NW) 2,678 7.6 21.6°
Maximum altitude 15:47:14 35° 18° (NNE) 1,442 5.8 20.4°
Drops below altitude 10° 15:52:53 10° 83° (E) 2,602 6.8 19.1°
Sets 15:55:42 0° 92° (E) 3,544 7.4 18.5°
